1570014707549.67553711,0.00244000,-0.00683200,1.01894400,-0.06865515,0.00742774,-12.19100000,23.84150000,16.62400000,3294.00000000,7237.00000000,-12415.00000000
1570014707613.19995117,0.00317200,-0.00768600,1.01284400,-0.02323963,-0.04798893,9.80900000,-6.15850000,-4.37600000,3294.00000000,7237.00000000,-12415.00000000
1570014707676.10327148,-0.00134200,-0.00671000,1.00906200,0.03324476,0.11738617,-24.19100000,35.84150000,18.62400000,3323.00000000,7244.00000000,-12396.00000000
1570014707738.84545898,-0.00061000,-0.00573400,1.00564600,0.08262197,0.07671851,-9.19100000,8.84150000,5.62400000,3323.00000000,7244.00000000,-12396.00000000
1570014707801.95385742,0.00109800,-0.00719800,1.00796400,0.27341406,-0.02043054,2.80900000,-5.15850000,0.62400000,3345.00000000,7252.00000000,-12410.00000000
1570014707864.87329102,0.00073200,-0.00671000,1.01223400,-0.23245442,1.75470379,4.80900000,-6.15850000,-5.37600000,3294.00000000,7266.00000000,-12434.00000000
1570014707927.71582031,-0.00024400,-0.00671000,1.00845200,-0.08393829,-0.02107947,1.80900000,-5.15850000,-5.37600000,3294.00000000,7266.00000000,-12434.00000000
1570014707990.55053711,-0.00158600,-0.00610000,1.00650000,-0.23737453,0.20918626,9.80900000,-10.15850000,-5.37600000,3298.00000000,7245.00000000,-12435.00000000
1570014708053.45019531,0.00170800,-0.00549000,1.00808600,0.07177973,-0.01374397,-1.19100000,-15.15850000,-11.37600000,3297.00000000,7249.00000000,-12450.00000000
1570014708116.47460938,0.00012200,-0.00634400,1.00723200,0.16864933,-0.18034639,-22.19100000,23.84150000,18.62400000,3297.00000000,7249.00000000,-12450.00000000
1570014708179.31542969,0.00109800,-0.00744200,1.00759800,-0.01162946,0.11109899,-0.19100000,2.84150000,-0.37600000,3294.00000000,7255.00000000,-12390.00000000
1570014708242.04785156,-0.02928000,-0.00634400,1.01101400,0.04056260,0.05599552,0.80900000,-0.15850000,-1.37600000,3311.00000000,7246.00000000,-12394.00000000
1570014708304.74682617,0.00097600,-0.00707600,1.00845200,0.00795986,-0.01393894,4.80900000,-6.15850000,-3.37600000,3311.00000000,7246.00000000,-12394.00000000
1570014708367.65893555,0.00109800,-0.00719800,1.00711000,0.00372579,-0.02048163,13.80900000,-25.15850000,-13.37600000,3295.00000000,7276.00000000,-12384.00000000
1570014708430.55981445,0.00244000,-0.00658800,1.01235600,-0.05893388,-0.09664679,-13.19100000,9.84150000,9.62400000,3264.00000000,7263.00000000,-12413.00000000
1570014708493.38085938,0.00012200,-0.00756400,1.00833000,0.11068810,0.03473059,8.80900000,-11.15850000,-7.37600000,3264.00000000,7263.00000000,-12413.00000000
1570014708556.27075195,0.00158600,-0.00646600,1.00503600,-0.15551455,0.17473848,-2.19100000,0.84150000,-24.37600000,3294.00000000,7271.00000000,-12444.00000000
1570014708619.04443359,0.00158600,-0.00646600,1.00869600,0.02381737,-0.38754057,-2.19100000,-0.15850000,-2.37600000,3294.00000000,7271.00000000,-12444.00000000
1570014708681.84570312,0.00207400,-0.00610000,1.00967200,0.07807031,-0.18753421,-8.19100000,5.84150000,3.62400000,3283.00000000,7272.00000000,-12392.00000000
1570014708744.67089844,-0.00048800,-0.00671000,0.99893600,0.12464610,0.00673996,-4.19100000,2.84150000,0.62400000,3283.00000000,7265.00000000,-12426.00000000
1570014708807.47436523,-0.00012200,-0.00890600,1.01052600,-0.14181678,0.29765266,13.80900000,-14.15850000,-7.37600000,3283.00000000,7265.00000000,-12426.00000000
1570014708870.28808594,-0.00085400,-0.00329400,1.00906200,0.22450581,-0.02061826,37.80900000,-48.15850000,-31.37600000,3305.00000000,7256.00000000,-12414.00000000
1570014708933.05957031,0.00000000,-0.00768600,1.00711000,-0.02571530,-0.01379709,16.80900000,-25.15850000,-15.37600000,3317.00000000,7261.00000000,-12415.00000000
1570014708995.85815430,0.00061000,-0.00719800,1.01064800,0.00095179,0.00693165,-22.19100000,25.84150000,17.62400000,3317.00000000,7261.00000000,-12415.00000000
1570014709058.71337891,0.00036600,-0.00829600,1.01101400,-0.06213833,0.02082973,-18.19100000,23.84150000,15.62400000,3268.00000000,7257.00000000,-12416.00000000
1570014709121.36352539,-0.00170800,-0.00646600,1.00576800,-0.04410724,0.13837915,22.80900000,-23.15850000,-18.37600000,3297.00000000,7242.00000000,-12408.00000000
1570014709184.26440430,0.00134200,-0.00597800,1.00796400,0.10585692,-0.03469386,0.80900000,-4.15850000,0.62400000,3297.00000000,7242.00000000,-12408.00000000
1570014709247.30541992,0.00207400,-0.00866200,1.00955000,-0.06094670,0.11020309,-15.19100000,18.84150000,7.62400000,3304.00000000,7249.00000000,-12407.00000000
1570014709311.12841797,0.00012200,-0.00817400,1.00454800,-0.24947550,0.25046550,-4.19100000,28.84150000,18.62400000,3305.00000000,7257.00000000,-12390.00000000
1570014709373.97290039,0.00073200,-0.00634400,1.01028200,0.05176206,0.06940240,9.80900000,-11.15850000,-7.37600000,3305.00000000,7257.00000000,-12390.00000000
1570014709436.97485352,0.00012200,-0.00561200,1.01003800,0.09350477,-0.00666962,-1.19100000,4.84150000,1.62400000,3296.00000000,7249.00000000,-12391.00000000
1570014709500.69897461,-0.00048800,-0.00793000,1.00845200,-0.01747590,0.06940551,-4.19100000,6.84150000,1.62400000,3323.00000000,7259.00000000,-12439.00000000
1570014709563.58496094,-0.00048800,-0.00780800,1.00979400,-0.14652786,-1.69472979,-9.19100000,10.84150000,3.62400000,3323.00000000,7259.00000000,-12439.00000000
1570014709626.31762695,-0.00207400,-0.00719800,1.01052600,0.13354493,0.11817620,-0.19100000,3.84150000,0.62400000,3335.00000000,7286.00000000,-12389.00000000
1570014709689.18627930,0.00036600,-0.00719800,1.00759800,-0.15207280,0.07651767,11.80900000,-9.15850000,-6.37600000,3335.00000000,7286.00000000,-12389.00000000
1570014709752.02612305,0.00048800,-0.00707600,1.00808600,0.04435614,0.13871915,-6.19100000,-6.15850000,-0.37600000,3307.00000000,7250.00000000,-12408.00000000
1570014709814.85229492,0.00158600,-0.00683200,1.00491400,0.17504378,-0.10434525,-7.19100000,21.84150000,14.62400000,3341.00000000,7283.00000000,-12416.00000000
1570014709877.74145508,0.00097600,-0.00817400,1.00381600,-0.05500162,-0.07664845,10.80900000,-11.15850000,-8.37600000,3341.00000000,7283.00000000,-12416.00000000
1570014709940.52441406,-0.00048800,-0.00646600,1.00650000,0.04346551,0.02089277,-29.19100000,36.84150000,25.62400000,3320.00000000,7257.00000000,-12367.00000000
1570014710003.47387695,0.00061000,-0.00610000,1.00979400,0.06882745,0.00745588,-0.19100000,3.84150000,2.62400000,3305.00000000,7252.00000000,-12413.00000000
1570014710066.46362305,0.00073200,-0.00744200,1.01040400,-0.01035263,0.00022967,-13.19100000,14.84150000,10.62400000,3305.00000000,7252.00000000,-12413.00000000
1570014710129.17236328,-0.00036600,-0.00732000,1.00991600,0.22996205,0.06267871,-10.19100000,7.84150000,9.62400000,3306.00000000,7235.00000000,-12414.00000000
1570014710191.98046875,-0.00061000,-0.00658800,1.00930600,0.11910689,-1.70618670,-6.19100000,13.84150000,6.62400000,3307.00000000,7279.00000000,-12402.00000000
1570014710254.89013672,-0.00012200,-0.00683200,1.00808600,0.07774483,0.18080884,5.80900000,-10.15850000,-12.37600000,3307.00000000,7279.00000000,-12402.00000000
1570014710317.69873047,-0.00170800,-0.00805200,1.00906200,-0.20111094,0.18628322,3.80900000,-4.15850000,0.62400000,3316.00000000,7275.00000000,-12393.00000000
1570014710380.54760742,0.00146400,-0.00695400,1.01199000,-0.24123447,-0.06821189,0.80900000,33.84150000,18.62400000,3321.00000000,7259.00000000,-12416.00000000
1570014710443.27319336,0.00109800,-0.00744200,1.01918800,-0.17140866,0.04172717,1.80900000,-26.15850000,-18.37600000,3321.00000000,7259.00000000,-12416.00000000
1570014710506.04492188,0.00036600,-0.00890600,1.00601200,0.04328712,-0.01385816,-0.19100000,41.84150000,29.62400000,3294.00000000,7228.00000000,-12421.00000000
1570014710568.94409180,0.00195200,-0.00646600,1.01125800,0.04519770,0.13158473,-1.19100000,0.84150000,-0.37600000,3294.00000000,7228.00000000,-12421.00000000
1570014710631.70751953,0.00244000,-0.00719800,1.01162400,0.00387309,0.04172717,-27.19100000,31.84150000,20.62400000,3300.00000000,7264.00000000,-12391.00000000
1570014710694.55834961,-0.00048800,-0.00719800,1.00686600,0.00602487,0.06921965,-22.19100000,30.84150000,17.62400000,3295.00000000,7253.00000000,-12445.00000000
1570014710757.66259766,0.00048800,-0.00707600,1.00906200,-0.01664851,0.01410220,12.80900000,-21.15850000,-9.37600000,3295.00000000,7253.00000000,-12445.00000000
1570014710820.75317383,0.00097600,-0.00634400,1.00784200,-0.04873732,-0.01323102,-6.19100000,9.84150000,0.62400000,3312.00000000,7250.00000000,-12414.00000000
1570014710883.79394531,-0.00085400,-0.00634400,1.00576800,0.14580328,-0.22401195,-12.19100000,11.84150000,2.62400000,3293.00000000,7261.00000000,-12401.00000000
1570014710946.70800781,0.00097600,-0.00658800,1.00894000,-0.12416331,-0.30853903,-0.19100000,-3.15850000,-7.37600000,3293.00000000,7261.00000000,-12401.00000000
1570014711009.47412109,0.00061000,-0.00854000,1.01467400,-0.18777832,0.01417269,1.80900000,12.84150000,7.62400000,3295.00000000,7288.00000000,-12457.00000000
1570014711072.31323242,0.00061000,-0.00719800,1.01345400,-0.11952865,0.29001735,-0.19100000,-1.15850000,2.62400000,3337.00000000,7270.00000000,-12421.00000000
1570014711135.04956055,-0.00012200,-0.01098000,1.01357600,-0.20911346,0.15206390,25.80900000,-41.15850000,-25.37600000,3337.00000000,7270.00000000,-12421.00000000
1570014711198.00122070,-0.03123200,-0.00793000,1.01077000,-0.03796263,0.05555795,8.80900000,-4.15850000,-4.37600000,3298.00000000,7270.00000000,-12386.00000000
1570014711260.73974609,0.00036600,-0.00829600,1.00942800,-0.05933324,0.02095348,-9.19100000,14.84150000,6.62400000,3285.00000000,7231.00000000,-12418.00000000
1570014711323.43945312,0.00000000,-0.00841800,1.00576800,-0.06724127,0.04172717,-24.19100000,33.84150000,20.62400000,3285.00000000,7231.00000000,-12418.00000000
1570014711386.30786133,0.00073200,-0.00573400,1.00833000,0.08733434,0.00033912,7.80900000,-10.15850000,-7.37600000,3298.00000000,7223.00000000,-12463.00000000
1570014711449.10156250,0.00109800,-0.00622200,1.00979400,0.12652588,-0.02083719,-12.19100000,9.84150000,5.62400000,3298.00000000,7231.00000000,-12478.00000000
1570014711511.87939453,0.00085400,-0.00719800,1.00735400,-0.03673986,1.78607698,-0.19100000,3.84150000,2.62400000,3304.00000000,7231.00000000,-12478.00000000
1570014711574.59985352,-0.00012200,-0.00671000,1.00942800,0.01078463,-0.14483129,14.80900000,-12.15850000,-22.37600000,3309.00000000,7212.00000000,-12444.00000000
1570014711637.47656250,0.00061000,-0.00841800,1.01016000,-0.13192462,0.14623855,6.80900000,-13.15850000,-6.37600000,3309.00000000,7212.00000000,-12444.00000000
1570014711700.48632812,-0.00048800,-0.00732000,1.00271800,-0.18795241,0.15325912,0.80900000,37.84150000,26.62400000,3274.00000000,7247.00000000,-12410.00000000
1570014711763.37207031,0.00061000,-0.00610000,1.00320600,-0.05528338,-0.16032994,-1.19100000,-12.15850000,-5.37600000,3294.00000000,7262.00000000,-12407.00000000
1570014711826.16479492,-0.00146400,-0.00780800,1.00955000,-0.03158223,0.06942218,-15.19100000,18.84150000,13.62400000,3294.00000000,7262.00000000,-12407.00000000
1570014711888.83691406,0.00036600,-0.00597800,1.00698800,0.07140917,0.00701990,2.80900000,-0.15850000,-2.37600000,3294.00000000,7208.00000000,-12385.00000000
1570014711951.69311523,0.03013400,-0.00732000,1.00820800,-0.00444093,0.02786118,-21.19100000,22.84150000,13.62400000,3332.00000000,7200.00000000,-12437.00000000
1570014712014.50732422,0.00158600,-0.00683200,1.01199000,0.02201828,-0.04869742,-12.19100000,13.84150000,10.62400000,3332.00000000,7200.00000000,-12437.00000000
1570014712077.34790039,-0.00024400,-0.00866200,1.00686600,-0.08502722,0.05571487,-20.19100000,27.84150000,12.62400000,3342.00000000,7246.00000000,-12444.00000000
1570014712140.23046875,0.00170800,-0.00695400,1.00930600,0.16298810,1.71279605,0.80900000,1.84150000,-1.37600000,3333.00000000,7210.00000000,-12450.00000000
1570014712203.10937500,0.00036600,-0.00622200,1.00869600,-0.00293078,-0.25531069,-6.19100000,7.84150000,-2.37600000,3333.00000000,7210.00000000,-12450.00000000
1570014712266.04272461,0.00024400,-0.00768600,1.00796400,-0.18004748,0.02084790,3.80900000,-6.15850000,12.62400000,3301.00000000,7235.00000000,-12478.00000000
1570014712328.92114258,0.00012200,-0.00756400,1.00833000,0.09312280,-0.17978153,-1.19100000,-8.15850000,-2.37600000,3331.00000000,7245.00000000,-12462.00000000
1570014712391.72705078,-0.00207400,-0.00841800,1.00833000,-0.12222745,0.28434704,-1.19100000,45.84150000,29.62400000,3331.00000000,7245.00000000,-12462.00000000
1570014712454.55664062,-0.00134200,-0.00744200,1.00296200,0.04913837,-0.15341254,-8.19100000,12.84150000,1.62400000,3293.00000000,7239.00000000,-12432.00000000
1570014712517.51196289,-0.03037800,-0.00902800,1.00418200,-0.10355579,0.06260925,7.80900000,-9.15850000,-8.37600000,3293.00000000,7239.00000000,-12432.00000000
1570014712580.42065430,0.00085400,-0.00622200,1.00918400,0.05863820,-0.00671036,-21.19100000,27.84150000,15.62400000,3298.00000000,7267.00000000,-12366.00000000
1570014712643.32519531,0.00048800,-0.00780800,1.00906200,-0.03443855,0.01385364,-7.19100000,8.84150000,0.62400000,3273.00000000,7266.00000000,-12391.00000000
1570014712706.29565430,-0.00097600,-0.00780800,1.00625600,-0.03281710,0.09727156,7.80900000,-14.15850000,-7.37600000,3273.00000000,7266.00000000,-12391.00000000
1570014712769.19897461,0.00134200,-0.00622200,1.01113600,-0.12165119,-0.03444227,-2.19100000,0.84150000,0.62400000,3274.00000000,7248.00000000,-12422.00000000
1570014712832.04052734,-0.00012200,-0.00732000,1.00759800,-0.04257375,-0.13028498,6.80900000,-10.15850000,-33.37600000,3307.00000000,7254.00000000,-12435.00000000
1570014712894.83740234,0.00061000,-0.00829600,1.00515800,-0.09146798,-0.01416217,-4.19100000,6.84150000,15.62400000,3307.00000000,7254.00000000,-12435.00000000
1570014712957.71679688,0.00048800,-0.00817400,1.01064800,-0.27360775,0.34318744,1.80900000,-2.15850000,0.62400000,3302.00000000,7274.00000000,-12475.00000000
1570014713020.48583984,0.00085400,-0.00780800,0.99808200,-0.05067897,-0.06332206,3.80900000,-14.15850000,-8.37600000,3313.00000000,7278.00000000,-12409.00000000
1570014713083.41333008,0.00012200,-0.00732000,1.01345400,-0.00228687,0.15897786,2.80900000,-1.15850000,0.62400000,3313.00000000,7278.00000000,-12409.00000000
1570014713146.32006836,0.03086600,-0.00597800,1.01150200,0.07292727,-0.03428805,20.80900000,-27.15850000,-19.37600000,3292.00000000,7267.00000000,-12394.00000000
1570014713209.01855469,0.00061000,-0.00866200,1.00881800,-0.08040338,0.00708352,-9.19100000,13.84150000,5.62400000,3291.00000000,7275.00000000,-12409.00000000
1570014713271.80297852,-0.00061000,-0.00646600,1.00613400,0.04342094,0.07645537,-24.19100000,30.84150000,18.62400000,3291.00000000,7275.00000000,-12409.00000000
1570014713334.64575195,-0.00012200,-0.00597800,1.00930600,0.07345707,0.04862683,4.80900000,-8.15850000,-2.37600000,3278.00000000,7258.00000000,-12407.00000000
1570014713397.57983398,0.00036600,-0.00707600,1.00772000,-0.00939467,1.78783548,14.80900000,-20.15850000,-8.37600000,3278.00000000,7258.00000000,-12407.00000000
1570014713460.51538086,0.00219600,-0.00744200,1.00515800,0.18968382,-0.20093078,-9.19100000,10.84150000,23.62400000,3281.00000000,7270.00000000,-12388.00000000
1570014713523.29248047,0.00207400,-0.00695400,1.00747600,-0.20821624,0.22765146,4.80900000,-3.15850000,-13.37600000,3316.00000000,7240.00000000,-12414.00000000
1570014713586.20751953,0.00122000,-0.00805200,1.00857400,0.07668796,-0.08384263,5.80900000,-9.15850000,-11.37600000,3316.00000000,7240.00000000,-12414.00000000
1570014713649.09326172,0.00134200,-0.00793000,1.00881800,0.10667221,-0.17999612,-4.19100000,-15.15850000,-6.37600000,3292.00000000,7254.00000000,-12410.00000000
1570014713711.80639648,0.00085400,-0.00793000,1.00515800,-0.01961027,-0.04867500,40.80900000,-49.15850000,-31.37600000,3288.00000000,7258.00000000,-12424.00000000
1570014713774.68261719,0.00109800,-0.00671000,1.00955000,0.03073202,-0.13829126,3.80900000,-2.15850000,-4.37600000,3288.00000000,7258.00000000,-12424.00000000
1570014713837.73193359,0.00000000,-0.00780800,1.00735400,-0.03335643,0.04172717,-4.19100000,10.84150000,-2.37600000,3315.00000000,7274.00000000,-12437.00000000
1570014713900.63452148,-0.00012200,-0.00634400,1.00845200,0.05206588,0.04864013,-24.19100000,27.84150000,17.62400000,3279.00000000,7263.00000000,-12484.00000000
1570014713963.50048828,0.00170800,-0.00622200,1.01052600,0.12331638,-0.05434781,-4.19100000,1.84150000,-1.37600000,3279.00000000,7263.00000000,-12484.00000000
1570014714026.37011719,-0.00134200,-0.00817400,1.00906200,0.12506744,-0.14692663,-2.19100000,2.84150000,14.62400000,3304.00000000,7304.00000000,-12468.00000000
1570014714090.33203125,-0.00061000,-0.00841800,1.00247400,0.15355350,-0.28598915,1.80900000,-14.15850000,-1.37600000,3297.00000000,7269.00000000,-12415.00000000
1570014714153.12792969,0.00085400,-0.00768600,1.00393800,0.27229454,-0.45260840,-2.19100000,8.84150000,2.62400000,3297.00000000,7269.00000000,-12415.00000000
1570014714215.78320312,0.00146400,-0.00756400,1.00564600,0.00145078,-0.08338456,4.80900000,-11.15850000,-9.37600000,3313.00000000,7260.00000000,-12459.00000000
1570014714278.64331055,0.00122000,-0.00622200,1.01125800,0.05902325,-0.15181190,-0.19100000,-5.15850000,-1.37600000,3313.00000000,7268.00000000,-12472.00000000
1570014714341.46069336,0.00231800,-0.00841800,1.01077000,-0.06562275,-0.04125714,-27.19100000,32.84150000,19.62400000,3287.00000000,7268.00000000,-12472.00000000
1570014714404.32202148,-0.00085400,-0.00854000,1.00601200,-0.07224624,0.09010546,-12.19100000,13.84150000,9.62400000,3300.00000000,7252.00000000,-12437.00000000
1570014714467.32836914,-0.00024400,-0.00634400,1.00503600,-0.12165164,0.05557616,10.80900000,-11.15850000,-9.37600000,3300.00000000,7252.00000000,-12437.00000000
1570014714530.08276367,0.00109800,-0.00854000,1.00955000,0.08623785,-0.02056487,-9.19100000,10.84150000,8.62400000,3309.00000000,7271.00000000,-12435.00000000
1570014714592.86474609,-0.00097600,-0.00585600,1.00894000,0.11196974,0.20892999,7.80900000,-4.15850000,-4.37600000,3308.00000000,7261.00000000,-12489.00000000
1570014714655.67773438,0.00122000,-0.00817400,1.00784200,-0.02587374,0.14587292,7.80900000,-10.15850000,1.62400000,3308.00000000,7261.00000000,-12489.00000000
1570014714718.47534180,0.00036600,-0.00622200,1.01077000,0.23088995,-0.29178638,-4.19100000,3.84150000,3.62400000,3292.00000000,7254.00000000,-12469.00000000
1570014714781.29907227,-0.00012200,-0.00695400,1.01687000,-0.06963335,0.17233059,-0.19100000,35.84150000,25.62400000,3295.00000000,7267.00000000,-12403.00000000
1570014714843.96752930,0.00085400,-0.00780800,1.01089200,-0.12087710,0.21458842,1.80900000,22.84150000,16.62400000,3295.00000000,7267.00000000,-12403.00000000
1570014714906.85961914,0.00097600,-0.00780800,1.01638200,-0.21427764,-0.00641188,7.80900000,-12.15850000,-3.37600000,3296.00000000,7275.00000000,-12412.00000000
1570014714969.67578125,0.00036600,-0.00622200,1.00674400,0.05744079,-0.00687471,-14.19100000,17.84150000,11.62400000,3286.00000000,7232.00000000,-12357.00000000
1570014715032.45556641,0.03037800,-0.00683200,1.00808600,0.02324467,-0.10388352,-31.19100000,25.84150000,25.62400000,3286.00000000,7232.00000000,-12357.00000000
1570014715095.26440430,0.00195200,-0.00768600,1.00784200,-0.02891594,-0.07013424,5.80900000,-4.15850000,-4.37600000,3309.00000000,7270.00000000,-12420.00000000
1570014715158.02221680,0.00219600,-0.00695400,1.00833000,0.02131640,-0.08150124,-16.19100000,16.84150000,13.62400000,3293.00000000,7267.00000000,-12380.00000000
1570014715220.77319336,-0.00061000,-0.00768600,1.00528000,-0.11255356,0.07666641,-8.19100000,8.84150000,6.62400000,3293.00000000,7267.00000000,-12380.00000000
1570014715283.68530273,0.00036600,-0.00622200,1.00747600,-0.03634900,1.78530966,6.80900000,-8.15850000,-4.37600000,3314.00000000,7246.00000000,-12380.00000000
1570014715346.82104492,-0.00134200,-0.00683200,1.00967200,-0.08612793,0.11084720,0.80900000,2.84150000,9.62400000,3314.00000000,7246.00000000,-12380.00000000
1570014715409.49414062,-0.00158600,-0.00768600,1.00991600,-0.11433903,0.33926251,8.80900000,-8.15850000,-12.37600000,3296.00000000,7204.00000000,-12402.00000000
1570014715472.35058594,-0.00170800,-0.00732000,1.00162000,0.32082069,-0.37001322,-4.19100000,14.84150000,12.62400000,3319.00000000,7185.00000000,-12409.00000000
1570014715535.16796875,-0.00048800,-0.00744200,1.01113600,0.30093375,-0.17949055,-7.19100000,49.84150000,28.62400000,3319.00000000,7185.00000000,-12409.00000000
1570014715598.11547852,0.00061000,-0.00732000,1.01064800,-0.00343507,-0.11734634,-26.19100000,35.84150000,18.62400000,3270.00000000,7208.00000000,-12407.00000000
1570014715660.85400391,0.00048800,-0.00658800,1.00601200,0.03633947,-0.05554702,-3.19100000,-1.15850000,1.62400000,3291.00000000,7240.00000000,-12389.00000000
1570014715723.59179688,0.00024400,-0.00878400,1.01077000,-0.08854140,0.02783613,21.80900000,-27.15850000,-15.37600000,3291.00000000,7240.00000000,-12389.00000000
1570014715786.73754883,0.00122000,-0.00805200,1.00820800,-0.05226675,-0.02854620,11.80900000,-15.15850000,-9.37600000,3279.00000000,7288.00000000,-12398.00000000
1570014715849.58740234,0.00158600,-0.00756400,1.00454800,-0.03785361,-0.04815115,12.80900000,-15.15850000,-10.37600000,3272.00000000,7247.00000000,-12382.00000000
1570014715912.37011719,-0.00061000,-0.00756400,1.01028200,0.02483463,0.07625439,9.80900000,-15.15850000,-8.37600000,3272.00000000,7247.00000000,-12382.00000000
1570014715975.13769531,0.00085400,-0.00695400,1.00845200,0.18130012,-0.01408900,-9.19100000,15.84150000,13.62400000,3287.00000000,7269.00000000,-12398.00000000
1570014716037.88574219,0.00048800,-0.00854000,1.00857400,-0.06677763,0.09718393,6.80900000,-10.15850000,-7.37600000,3278.00000000,7262.00000000,-12422.00000000
1570014716100.72363281,-0.00195200,-0.00707600,1.00613400,0.06201797,-0.30080669,-0.19100000,-21.15850000,-16.37600000,3278.00000000,7262.00000000,-12422.00000000
1570014716163.53051758,0.00036600,-0.00610000,1.00076600,0.02738775,0.03474259,-4.19100000,18.84150000,15.62400000,3276.00000000,7264.00000000,-12414.00000000
1570014716226.33984375,-0.00036600,-0.00793000,1.00149800,0.02068931,0.08360396,11.80900000,-16.15850000,-11.37600000,3276.00000000,7264.00000000,-12414.00000000
1570014716289.15747070,0.00195200,-0.01000400,1.01321000,-0.15415206,0.15210485,-20.19100000,26.84150000,16.62400000,3272.00000000,7216.00000000,-12367.00000000
1570014716351.96289062,0.00146400,-0.00744200,1.00967200,-0.01076050,0.01403542,23.80900000,-26.15850000,-20.37600000,3278.00000000,7242.00000000,-12372.00000000
1570014716414.78808594,0.00109800,-0.00658800,1.00576800,0.03556405,-0.02093545,25.80900000,-26.15850000,-19.37600000,3278.00000000,7242.00000000,-12372.00000000
1570014716477.60937500,0.00219600,-0.00695400,1.00552400,0.01361392,-0.08393355,0.80900000,-4.15850000,0.62400000,3261.00000000,7213.00000000,-12334.00000000
1570014716540.45922852,0.00109800,-0.00780800,1.01028200,0.05071651,-0.02072307,4.80900000,-9.15850000,-7.37600000,3271.00000000,7227.00000000,-12423.00000000
1570014716603.29809570,0.00183000,-0.00719800,1.00881800,-0.04501519,1.70907180,1.80900000,-3.15850000,-0.37600000,3271.00000000,7227.00000000,-12423.00000000
1570014716666.12158203,0.00317200,-0.00671000,1.00759800,0.02920816,0.25722356,6.80900000,-4.15850000,-20.37600000,3262.00000000,7233.00000000,-12372.00000000
1570014716728.86889648,0.00146400,-0.00634400,1.01003800,0.03711097,-0.00680990,0.80900000,-3.15850000,-6.37600000,3255.00000000,7242.00000000,-12348.00000000
1570014716791.68212891,-0.00097600,-0.00707600,1.00735400,0.15377573,-0.37627514,-8.19100000,8.84150000,6.62400000,3255.00000000,7242.00000000,-12348.00000000
1570014716854.66064453,-0.00109800,-0.00646600,1.01040400,-0.23873136,0.11782142,-6.19100000,19.84150000,13.62400000,3247.00000000,7225.00000000,-12402.00000000